• en France
  • Liste des pays
  • À 7 jours
  • Température de l'eau
  • Carte satellitaire
  • Carte météo
  • Widgets météo
  • user-avatar
    Se connecter

    Météo par heure à Lezhё

    Ce jour, 25 Septembre, Mardi

    Heure Température Précipitation Vent Pression Humidité
    00:00 +13°C° 0 mm 6 m/s 742 mmHg 62%
    01:00 +12°C° 0 mm 7 m/s 742 mmHg 62%
    02:00 +11°C° 0 mm 7 m/s 743 mmHg 62%
    03:00 +10°C° 0 mm 7 m/s 743 mmHg 62%
    04:00 +10°C° 0 mm 7 m/s 743 mmHg 61%
    05:00 +10°C° 0 mm 7 m/s 743 mmHg 59%
    06:00 +10°C° 0 mm 7 m/s 744 mmHg 57%
    07:00 +11°C° 0 mm 8 m/s 744 mmHg 53%
    08:00 +14°C° 0 mm 7 m/s 744 mmHg 47%
    09:00 +15°C° 0 mm 7 m/s 744 mmHg 40%
    10:00 +17°C° 0 mm 6 m/s 744 mmHg 33%
    11:00 +19°C° 0 mm 6 m/s 744 mmHg 31%
    12:00 +20°C° 0 mm 6 m/s 744 mmHg 28%
    13:00 +20°C° 0 mm 6 m/s 744 mmHg 27%
    14:00 +20°C° 0 mm 6 m/s 744 mmHg 28%
    15:00 +19°C° 0 mm 6 m/s 744 mmHg 29%
    16:00 +19°C° 0 mm 6 m/s 744 mmHg 30%
    17:00 +16°C° 0 mm 6 m/s 744 mmHg 35%
    18:00 +14°C° 0 mm 6 m/s 745 mmHg 40%
    19:00 +11°C° 0 mm 6 m/s 745 mmHg 44%
    20:00 +10°C° 0 mm 6 m/s 745 mmHg 47%
    21:00 +9°C° 0 mm 6 m/s 746 mmHg 50%
    22:00 +9°C° 0 mm 6 m/s 746 mmHg 52%
    23:00 +8°C° 0 mm 6 m/s 746 mmHg 54%

    Demain, 26 Septembre, Mercredi

    Heure Température Précipitation Vent Pression Humidité
    00:00 +8°C° 0 mm 6 m/s 747 mmHg 55%
    01:00 +7°C° 0 mm 6 m/s 747 mmHg 57%
    02:00 +7°C° 0 mm 6 m/s 747 mmHg 58%
    03:00 +7°C° 0 mm 6 m/s 747 mmHg 58%
    04:00 +5°C° 0 mm 6 m/s 747 mmHg 59%
    05:00 +7°C° 0 mm 6 m/s 747 mmHg 56%
    06:00 +8°C° 0 mm 7 m/s 747 mmHg 53%
    07:00 +9°C° 0 mm 7 m/s 747 mmHg 49%
    08:00 +10°C° 0 mm 7 m/s 747 mmHg 43%
    09:00 +12°C° 0 mm 7 m/s 747 mmHg 36%
    10:00 +15°C° 0 mm 7 m/s 747 mmHg 30%
    11:00 +16°C° 0 mm 7 m/s 747 mmHg 28%
    12:00 +17°C° 0 mm 7 m/s 747 mmHg 26%
    13:00 +18°C° 0 mm 7 m/s 747 mmHg 24%
    14:00 +17°C° 0 mm 7 m/s 746 mmHg 25%
    15:00 +17°C° 0 mm 7 m/s 746 mmHg 26%
    16:00 +16°C° 0 mm 6 m/s 746 mmHg 26%
    17:00 +14°C° 0 mm 6 m/s 747 mmHg 31%
    18:00 +12°C° 0 mm 5 m/s 747 mmHg 36%
    19:00 +9°C° 0 mm 5 m/s 748 mmHg 41%
    20:00 +8°C° 0 mm 5 m/s 748 mmHg 43%
    21:00 +8°C° 0 mm 5 m/s 749 mmHg 45%
    22:00 +7°C° 0 mm 5 m/s 749 mmHg 47%
    23:00 +7°C° 0 mm 5 m/s 749 mmHg 47%

    Après-demain, 27 Septembre, Jeudi

    Heure Température Précipitation Vent Pression Humidité
    00:00 +6°C° 0 mm 5 m/s 749 mmHg 48%
    01:00 +6°C° 0 mm 5 m/s 749 mmHg 48%
    02:00 +6°C° 0 mm 5 m/s 748 mmHg 48%
    03:00 +6°C° 0 mm 5 m/s 748 mmHg 49%
    04:00 +5°C° 0 mm 5 m/s 748 mmHg 49%
    05:00 +6°C° 0 mm 5 m/s 747 mmHg 46%
    06:00 +8°C° 0 mm 5 m/s 747 mmHg 43%
    07:00 +9°C° 0 mm 5 m/s 747 mmHg 40%
    08:00 +12°C° 0 mm 5 m/s 747 mmHg 34%
    09:00 +15°C° 0 mm 5 m/s 747 mmHg 28%
    10:00 +17°C° 0 mm 5 m/s 746 mmHg 23%
    11:00 +19°C° 0 mm 5 m/s 746 mmHg 21%
    12:00 +21°C° 0 mm 5 m/s 745 mmHg 20%
    13:00 +22°C° 0 mm 5 m/s 744 mmHg 18%
    14:00 +22°C° 0 mm 5 m/s 744 mmHg 19%
    15:00 +21°C° 0 mm 4 m/s 743 mmHg 20%
    16:00 +21°C° 0 mm 4 m/s 743 mmHg 22%
    17:00 +18°C° 0 mm 4 m/s 743 mmHg 26%
    18:00 +15°C° 0 mm 4 m/s 743 mmHg 31%
    19:00 +12°C° 0 mm 4 m/s 743 mmHg 36%
    20:00 +12°C° 0 mm 4 m/s 743 mmHg 38%
    21:00 +11°C° 0 mm 4 m/s 743 mmHg 39%
    22:00 +11°C° 0 mm 4 m/s 743 mmHg 40%
    23:00 +10°C° 0 mm 4 m/s 743 mmHg 40%

    28 Septembre, Vendredi

    Heure Température Précipitation Vent Pression Humidité
    00:00 +10°C° 0 mm 4 m/s 743 mmHg 40%
    01:00 +10°C° 0 mm 4 m/s 742 mmHg 39%
    02:00 +10°C° 0 mm 4 m/s 742 mmHg 39%
    03:00 +8°C° 0 mm 4 m/s 741 mmHg 38%
    04:00 +8°C° 0 mm 4 m/s 741 mmHg 38%
    05:00 +10°C° 0 mm 4 m/s 740 mmHg 36%
    06:00 +11°C° 0 mm 4 m/s 740 mmHg 34%
    07:00 +12°C° 0 mm 4 m/s 740 mmHg 32%
    08:00 +15°C° 0 mm 4 m/s 739 mmHg 27%
    09:00 +19°C° 0 mm 4 m/s 739 mmHg 22%
    10:00 +22°C° 0 mm 4 m/s 739 mmHg 17%
    11:00 +24°C° 0 mm 3 m/s 738 mmHg 17%
    12:00 +25°C° 0 mm 3 m/s 738 mmHg 18%
    13:00 +26°C° 0 mm 3 m/s 737 mmHg 18%
    14:00 +26°C° 0 mm 3 m/s 736 mmHg 20%
    15:00 +26°C° 0 mm 4 m/s 736 mmHg 22%
    16:00 +25°C° 0 mm 4 m/s 736 mmHg 24%
    17:00 +22°C° 0 mm 4 m/s 736 mmHg 27%
    18:00 +19°C° 0 mm 4 m/s 736 mmHg 30%
    19:00 +17°C° 0 mm 4 m/s 736 mmHg 33%
    20:00 +16°C° 0 mm 3 m/s 736 mmHg 33%
    21:00 +16°C° 0 mm 3 m/s 736 mmHg 33%
    22:00 +16°C° 0 mm 3 m/s 736 mmHg 33%
    23:00 +14°C° 0 mm 3 m/s 736 mmHg 33%

    29 Septembre, Samedi

    Heure Température Précipitation Vent Pression Humidité
    00:00 +14°C° 0 mm 3 m/s 736 mmHg 33%
    01:00 +14°C° 0 mm 3 m/s 735 mmHg 33%
    02:00 +14°C° 0 mm 3 m/s 735 mmHg 33%
    03:00 +14°C° 0 mm 3 m/s 735 mmHg 33%
    04:00 +14°C° 0 mm 3 m/s 735 mmHg 32%
    05:00 +16°C° 0 mm 3 m/s 735 mmHg 33%
    06:00 +16°C° 0 mm 3 m/s 735 mmHg 33%
    07:00 +17°C° 0 mm 3 m/s 735 mmHg 34%
    08:00 +19°C° 0 mm 3 m/s 735 mmHg 30%
    09:00 +23°C° 0 mm 2 m/s 735 mmHg 27%
    10:00 +25°C° 0 mm 2 m/s 735 mmHg 23%
    11:00 +26°C° 0 mm 3 m/s 734 mmHg 23%
    12:00 +27°C° 0 mm 3 m/s 734 mmHg 23%
    13:00 +28°C° 0 mm 3 m/s 734 mmHg 22%
    14:00 +27°C° 0 mm 3 m/s 733 mmHg 24%
    15:00 +27°C° 0 mm 4 m/s 733 mmHg 25%
    16:00 +26°C° 0 mm 4 m/s 733 mmHg 27%
    17:00 +23°C° 0 mm 4 m/s 734 mmHg 30%
    18:00 +21°C° 0 mm 3 m/s 734 mmHg 34%
    19:00 +18°C° 0 mm 3 m/s 734 mmHg 38%
    20:00 +17°C° 0 mm 3 m/s 735 mmHg 38%
    21:00 +17°C° 0 mm 3 m/s 735 mmHg 38%
    22:00 +16°C° 0 mm 3 m/s 735 mmHg 38%
    23:00 +16°C° 0 mm 3 m/s 735 mmHg 39%

    30 Septembre, Dimanche

    Heure Température Précipitation Vent Pression Humidité
    00:00 +16°C° 0 mm 3 m/s 735 mmHg 40%
    01:00 +14°C° 0 mm 3 m/s 735 mmHg 41%
    02:00 +14°C° 0 mm 3 m/s 735 mmHg 41%
    03:00 +14°C° 0 mm 3 m/s 735 mmHg 42%
    04:00 +14°C° 0 mm 3 m/s 735 mmHg 42%
    05:00 +16°C° 0 mm 3 m/s 736 mmHg 43%
    06:00 +16°C° 0 mm 3 m/s 736 mmHg 43%
    07:00 +17°C° 0 mm 3 m/s 736 mmHg 43%
    08:00 +19°C° 0 mm 3 m/s 736 mmHg 38%
    09:00 +22°C° 0 mm 3 m/s 736 mmHg 34%
    10:00 +25°C° 0 mm 3 m/s 736 mmHg 30%
    11:00 +26°C° 0 mm 2 m/s 736 mmHg 30%
    12:00 +26°C° 0 mm 2 m/s 736 mmHg 30%
    13:00 +27°C° 0 mm 2 m/s 735 mmHg 31%
    14:00 +26°C° 0.1 mm 2 m/s 735 mmHg 35%
    15:00 +25°C° 0.1 mm 2 m/s 735 mmHg 40%
    16:00 +25°C° 0.1 mm 2 m/s 735 mmHg 45%
    17:00 +23°C° 0.4 mm 2 m/s 735 mmHg 52%
    18:00 +20°C° 0.4 mm 2 m/s 735 mmHg 59%
    19:00 +19°C° 0.4 mm 1 m/s 736 mmHg 66%
    20:00 +18°C° 0.3 mm 2 m/s 736 mmHg 66%
    21:00 +18°C° 0.3 mm 2 m/s 736 mmHg 65%
    22:00 +18°C° 0.3 mm 2 m/s 736 mmHg 65%
    23:00 +17°C° 1.4 mm 2 m/s 735 mmHg 69%
    Voir plus